Time,TemperatureF,DewpointF,PressureIn,WindDirection,WindDirectionDegrees,WindSpeedMPH,WindSpeedGustMPH,Humidity,HourlyPrecipIn,Conditions,Clouds,dailyrainin,SoftwareType,DateUTC
2013-02-10 00:01:00,26.0,25.0,-100.00,NE,40,3.0,4.0,97,0.00,,,0.00,,2013-02-10 06:01:00,
2013-02-10 00:11:00,26.0,25.0,-100.00,NNE,30,3.0,4.0,97,0.00,,,0.00,,2013-02-10 06:11:00,
2013-02-10 00:21:00,27.0,27.0,-100.00,NNE,20,4.0,5.0,97,0.00,,,0.00,,2013-02-10 06:21:00,
2013-02-10 00:32:00,27.0,27.0,-100.00,NE,35,4.0,6.0,97,0.00,,,0.00,,2013-02-10 06:32:00,
2013-02-10 00:42:00,27.0,27.0,-100.00,NE,40,5.0,6.0,97,0.00,,,0.00,,2013-02-10 06:42:00,
2013-02-10 00:51:00,27.0,27.0,-100.00,NNE,25,5.0,6.0,97,0.00,,,0.00,,2013-02-10 06:51:00,
2013-02-10 01:01:00,27.0,27.0,-100.00,North,5,4.0,7.0,97,0.00,,,0.00,,2013-02-10 07:01:00,
2013-02-10 01:11:00,27.0,27.0,-100.00,NNE,20,4.0,7.0,97,0.00,,,0.00,,2013-02-10 07:11:00,
2013-02-10 01:21:00,27.0,27.0,-100.00,NE,40,4.0,6.0,97,0.00,,,0.00,,2013-02-10 07:21:00,
2013-02-10 01:31:00,27.0,27.0,-100.00,NNE,25,4.0,6.0,97,0.00,,,0.00,,2013-02-10 07:31:00,
2013-02-10 01:41:00,27.0,27.0,-100.00,NNE,30,4.0,6.0,97,0.00,,,0.00,,2013-02-10 07:41:00,
2013-02-10 01:51:00,27.0,27.0,-100.00,NE,40,5.0,6.0,97,0.00,,,0.00,,2013-02-10 07:51:00,
2013-02-10 02:43:00,27.0,27.0,-100.00,NE,55,7.0,7.0,97,0.00,,,0.00,,2013-02-10 08:43:00,
2013-02-10 02:52:00,27.0,27.0,-100.00,NE,45,6.0,7.0,97,0.00,,,0.00,,2013-02-10 08:52:00,
2013-02-10 03:02:00,27.0,27.0,-100.00,NE,40,7.0,9.0,97,0.00,,,0.00,,2013-02-10 09:02:00,
2013-02-10 03:11:00,27.0,27.0,-100.00,NE,40,9.0,10.0,97,0.00,,,0.00,,2013-02-10 09:11:00,
2013-02-10 03:21:00,27.0,27.0,-100.00,NE,45,7.0,9.0,97,0.00,,,0.00,,2013-02-10 09:21:00,
2013-02-10 03:31:00,27.0,27.0,-100.00,NE,45,7.0,9.0,97,0.00,,,0.00,,2013-02-10 09:31:00,
2013-02-10 03:41:00,27.0,27.0,-100.00,NE,55,7.0,9.0,97,0.00,,,0.00,,2013-02-10 09:41:00,
2013-02-10 03:51:00,27.0,27.0,-100.00,NE,55,7.0,9.0,97,0.00,,,0.00,,2013-02-10 09:51:00,
2013-02-10 04:01:00,27.0,27.0,-100.00,ENE,60,8.0,9.0,97,0.00,,,0.00,,2013-02-10 10:01:00,
2013-02-10 04:21:00,27.0,27.0,-100.00,NE,50,7.0,9.0,97,0.00,,,0.00,,2013-02-10 10:21:00,
2013-02-10 04:31:00,27.0,27.0,-100.00,NE,45,9.0,10.0,97,0.00,,,0.00,,2013-02-10 10:31:00,
2013-02-10 04:41:00,27.0,27.0,-100.00,NE,45,9.0,11.0,97,0.00,,,0.00,,2013-02-10 10:41:00,
2013-02-10 04:51:00,27.0,27.0,-100.00,NE,45,7.0,10.0,97,0.00,,,0.00,,2013-02-10 10:51:00,
2013-02-10 05:01:00,27.0,27.0,-100.00,NE,40,7.0,9.0,97,0.00,,,0.00,,2013-02-10 11:01:00,
2013-02-10 05:11:00,27.0,27.0,-100.00,NE,35,7.0,9.0,97,0.00,,,0.00,,2013-02-10 11:11:00,
2013-02-10 05:32:00,27.0,27.0,-100.00,NE,40,7.0,10.0,96,0.00,,,0.00,,2013-02-10 11:32:00,
2013-02-10 05:42:00,27.0,27.0,-100.00,NE,40,7.0,9.0,96,0.00,,,0.00,,2013-02-10 11:42:00,
2013-02-10 05:52:00,27.0,27.0,-100.00,NE,35,7.0,11.0,96,0.00,,,0.00,,2013-02-10 11:52:00,
2013-02-10 06:01:00,27.0,27.0,-100.00,NE,40,10.0,12.0,96,0.00,,,0.00,,2013-02-10 12:01:00,
2013-02-10 06:12:00,27.0,27.0,-100.00,NE,40,10.0,12.0,96,0.00,,,0.00,,2013-02-10 12:12:00,
2013-02-10 06:21:00,27.0,27.0,-100.00,NE,40,10.0,12.0,96,0.00,,,0.00,,2013-02-10 12:21:00,
2013-02-10 06:32:00,27.0,27.0,-100.00,NE,40,9.0,12.0,96,0.00,,,0.00,,2013-02-10 12:32:00,
2013-02-10 06:41:00,27.0,27.0,-100.00,NE,35,9.0,12.0,96,0.00,,,0.00,,2013-02-10 12:41:00,
2013-02-10 06:52:00,27.0,27.0,-100.00,NE,35,9.0,11.0,96,0.00,,,0.00,,2013-02-10 12:52:00,
2013-02-10 07:02:00,27.0,27.0,-100.00,NNE,30,8.0,10.0,96,0.00,,,0.00,,2013-02-10 13:02:00,
2013-02-10 07:11:00,27.0,27.0,-100.00,NNE,30,9.0,11.0,96,0.00,,,0.00,,2013-02-10 13:11:00,
2013-02-10 07:21:00,27.0,27.0,-100.00,NNE,25,7.0,10.0,96,0.00,,,0.00,,2013-02-10 13:21:00,
2013-02-10 07:31:00,27.0,27.0,-100.00,NNE,25,7.0,11.0,96,0.00,,,0.00,,2013-02-10 13:31:00,
2013-02-10 07:41:00,27.0,27.0,-100.00,NNE,20,8.0,12.0,96,0.00,,,0.00,,2013-02-10 13:41:00,
2013-02-10 07:51:00,27.0,27.0,-100.00,North,10,6.0,11.0,96,0.00,,,0.00,,2013-02-10 13:51:00,
2013-02-10 08:02:00,27.0,27.0,-100.00,NNE,20,7.0,12.0,96,0.00,,,0.00,,2013-02-10 14:02:00,
2013-02-10 08:11:00,27.0,27.0,-100.00,NNE,20,8.0,12.0,96,0.01,,,0.00,,2013-02-10 14:11:00,
2013-02-10 08:21:00,27.0,27.0,-100.00,North,10,9.0,12.0,96,0.01,,,0.00,,2013-02-10 14:21:00,
2013-02-10 08:31:00,27.0,27.0,-100.00,NNE,15,9.0,12.0,96,0.01,,,0.01,,2013-02-10 14:31:00,
2013-02-10 08:41:00,27.0,27.0,-100.00,NNE,25,11.0,14.0,96,0.00,,,0.01,,2013-02-10 14:41:00,
2013-02-10 08:52:00,28.0,27.0,-100.00,NNE,25,10.0,14.0,96,0.00,,,0.01,,2013-02-10 14:52:00,
2013-02-10 09:01:00,28.0,27.0,-100.00,NNE,25,11.0,14.0,96,0.00,,,0.01,,2013-02-10 15:01:00,
2013-02-10 09:11:00,28.0,27.0,-100.00,NNE,25,12.0,16.0,96,0.00,,,0.01,,2013-02-10 15:11:00,
2013-02-10 09:21:00,28.0,27.0,-100.00,North,10,9.0,15.0,96,0.00,,,0.01,,2013-02-10 15:21:00,
2013-02-10 09:31:00,28.0,27.0,-100.00,North,5,13.0,17.0,96,0.00,,,0.01,,2013-02-10 15:31:00,
2013-02-10 09:41:00,28.0,27.0,-100.00,NNE,15,14.0,18.0,96,0.00,,,0.01,,2013-02-10 15:41:00,
2013-02-10 09:51:00,28.0,27.0,-100.00,North,10,14.0,19.0,96,0.00,,,0.01,,2013-02-10 15:51:00,
2013-02-10 10:02:00,28.0,27.0,-100.00,North,10,14.0,19.0,96,0.00,,,0.01,,2013-02-10 16:02:00,
2013-02-10 10:21:00,29.0,28.0,-100.00,NNE,15,9.0,17.0,96,0.00,,,0.01,,2013-02-10 16:21:00,
2013-02-10 10:32:00,29.0,28.0,-100.00,North,10,9.0,14.0,94,0.00,,,0.01,,2013-02-10 16:32:00,
2013-02-10 10:42:00,29.0,27.0,-100.00,North,5,10.0,16.0,93,0.00,,,0.01,,2013-02-10 16:42:00,
2013-02-10 10:52:00,29.0,27.0,-100.00,NNE,20,10.0,16.0,92,0.00,,,0.01,,2013-02-10 16:52:00,
2013-02-10 11:11:00,29.0,27.0,-100.00,North,10,11.0,17.0,92,0.00,,,0.01,,2013-02-10 17:11:00,
2013-02-10 11:21:00,29.0,27.0,-100.00,North,10,11.0,17.0,92,0.00,,,0.01,,2013-02-10 17:21:00,
2013-02-10 11:32:00,29.0,27.0,-100.00,North,10,11.0,17.0,92,0.00,,,0.01,,2013-02-10 17:32:00,
2013-02-10 11:42:00,29.0,27.0,-100.00,North,10,11.0,17.0,92,0.00,,,0.01,,2013-02-10 17:42:00,
2013-02-10 12:02:00,29.0,27.0,-100.00,North,5,12.0,17.0,93,0.00,,,0.01,,2013-02-10 18:02:00,
2013-02-10 12:12:00,29.0,27.0,-100.00,NNE,15,15.0,17.0,94,0.00,,,0.01,,2013-02-10 18:12:00,
2013-02-10 12:22:00,29.0,27.0,-100.00,NNE,15,14.0,18.0,94,0.00,,,0.01,,2013-02-10 18:22:00,
2013-02-10 12:32:00,29.0,27.0,-100.00,NNE,15,14.0,19.0,94,0.00,,,0.01,,2013-02-10 18:32:00,
2013-02-10 12:42:00,29.0,27.0,-100.00,North,350,9.0,17.0,95,0.00,,,0.01,,2013-02-10 18:42:00,
2013-02-10 12:52:00,28.0,27.0,-100.00,North,10,12.0,17.0,95,0.00,,,0.01,,2013-02-10 18:52:00,
2013-02-10 13:01:00,28.0,27.0,-100.00,North,10,16.0,19.0,95,0.00,,,0.01,,2013-02-10 19:01:00,
2013-02-10 13:11:00,28.0,27.0,-100.00,NNW,345,17.0,22.0,95,0.00,,,0.01,,2013-02-10 19:11:00,
2013-02-10 13:21:00,28.0,27.0,-100.00,NNW,345,15.0,22.0,95,0.00,,,0.01,,2013-02-10 19:21:00,
2013-02-10 13:32:00,28.0,27.0,-100.00,North,5,16.0,21.0,95,0.00,,,0.01,,2013-02-10 19:32:00,
2013-02-10 13:42:00,28.0,27.0,-100.00,NNW,345,16.0,24.0,96,0.00,,,0.01,,2013-02-10 19:42:00,
2013-02-10 13:52:00,28.0,27.0,-100.00,North,350,16.0,23.0,96,0.00,,,0.02,,2013-02-10 19:52:00,
2013-02-10 14:02:00,28.0,27.0,-100.00,North,5,17.0,26.0,96,0.00,,,0.02,,2013-02-10 20:02:00,
2013-02-10 14:11:00,28.0,27.0,-100.00,North,350,19.0,23.0,96,0.00,,,0.02,,2013-02-10 20:11:00,
2013-02-10 14:21:00,28.0,27.0,-100.00,North,350,21.0,26.0,96,0.00,,,0.02,,2013-02-10 20:21:00,
2013-02-10 14:32:00,28.0,27.0,-100.00,NNW,345,22.0,26.0,97,0.00,,,0.02,,2013-02-10 20:32:00,
2013-02-10 14:42:00,28.0,27.0,-100.00,North,350,24.0,29.0,97,0.00,,,0.02,,2013-02-10 20:42:00,
2013-02-10 14:52:00,28.0,27.0,-100.00,North,350,26.0,31.0,97,0.00,,,0.02,,2013-02-10 20:52:00,
2013-02-10 15:02:00,28.0,27.0,-100.00,NNW,345,28.0,32.0,97,0.00,,,0.02,,2013-02-10 21:02:00,
2013-02-10 15:11:00,28.0,27.0,-100.00,NNW,345,27.0,33.0,97,0.00,,,0.02,,2013-02-10 21:11:00,
2013-02-10 15:21:00,27.0,27.0,-100.00,NNW,345,28.0,32.0,97,0.00,,,0.02,,2013-02-10 21:21:00,
2013-02-10 15:32:00,27.0,27.0,-100.00,NNW,345,29.0,34.0,97,0.00,,,0.02,,2013-02-10 21:32:00,
2013-02-10 15:42:00,27.0,27.0,-100.00,NNW,345,29.0,34.0,97,0.00,,,0.02,,2013-02-10 21:42:00,
2013-02-10 15:51:00,27.0,27.0,-100.00,NNW,345,30.0,35.0,96,0.00,,,0.02,,2013-02-10 21:51:00,
2013-02-10 16:02:00,27.0,27.0,-100.00,NNW,345,30.0,37.0,96,0.00,,,0.02,,2013-02-10 22:02:00,
2013-02-10 16:11:00,27.0,27.0,-100.00,NNW,345,30.0,37.0,96,0.00,,,0.02,,2013-02-10 22:11:00,
2013-02-10 16:21:00,27.0,27.0,-100.00,NNW,345,27.0,32.0,94,0.00,,,0.02,,2013-02-10 22:21:00,
2013-02-10 16:32:00,27.0,27.0,-100.00,North,350,26.0,32.0,93,0.00,,,0.02,,2013-02-10 22:32:00,
2013-02-10 16:42:00,27.0,27.0,-100.00,North,350,22.0,32.0,93,0.00,,,0.02,,2013-02-10 22:42:00,
2013-02-10 16:52:00,28.0,25.0,-100.00,North,350,24.0,29.0,91,0.00,,,0.02,,2013-02-10 22:52:00,
2013-02-10 17:02:00,28.0,25.0,-100.00,North,350,24.0,28.0,90,0.00,,,0.02,,2013-02-10 23:02:00,
2013-02-10 17:11:00,28.0,25.0,-100.00,North,350,22.0,28.0,90,0.00,,,0.02,,2013-02-10 23:11:00,
2013-02-10 17:22:00,28.0,25.0,-100.00,NNW,340,21.0,24.0,90,0.00,,,0.02,,2013-02-10 23:22:00,
2013-02-10 17:32:00,28.0,25.0,-100.00,NNW,340,22.0,27.0,92,0.00,,,0.02,,2013-02-10 23:32:00,
2013-02-10 17:42:00,27.0,25.0,-100.00,NNW,345,21.0,26.0,93,0.01,,,0.02,,2013-02-10 23:42:00,
2013-02-10 17:52:00,27.0,27.0,-100.00,NNW,345,22.0,27.0,95,0.01,,,0.02,,2013-02-10 23:52:00,
2013-02-10 18:02:00,27.0,27.0,-100.00,NNW,340,22.0,28.0,95,0.01,,,0.02,,2013-02-11 00:02:00,
2013-02-10 18:11:00,27.0,27.0,-100.00,NNW,345,21.0,27.0,96,0.01,,,0.02,,2013-02-11 00:11:00,
2013-02-10 18:22:00,27.0,27.0,-100.00,NNW,345,22.0,26.0,96,0.02,,,0.03,,2013-02-11 00:22:00,
2013-02-10 18:32:00,27.0,27.0,-100.00,NNW,340,20.0,27.0,97,0.02,,,0.03,,2013-02-11 00:32:00,
2013-02-10 18:42:00,27.0,27.0,-100.00,NNW,345,20.0,24.0,97,0.03,,,0.03,,2013-02-11 00:42:00,
2013-02-10 18:51:00,27.0,27.0,-100.00,NNW,340,21.0,26.0,97,0.03,,,0.04,,2013-02-11 00:51:00,
2013-02-10 19:01:00,27.0,27.0,-100.00,NNW,340,21.0,26.0,97,0.03,,,0.04,,2013-02-11 01:01:00,
2013-02-10 19:11:00,27.0,27.0,-100.00,NNW,335,20.0,26.0,97,0.03,,,0.05,,2013-02-11 01:11:00,
2013-02-10 19:21:00,27.0,27.0,-100.00,NNW,335,22.0,27.0,97,0.03,,,0.05,,2013-02-11 01:21:00,
2013-02-10 19:32:00,27.0,27.0,-100.00,NNW,335,23.0,28.0,98,0.03,,,0.05,,2013-02-11 01:32:00,
2013-02-10 19:41:00,27.0,27.0,-100.00,NNW,335,24.0,28.0,98,0.02,,,0.06,,2013-02-11 01:41:00,
2013-02-10 19:52:00,27.0,27.0,-100.00,NNW,330,22.0,28.0,98,0.02,,,0.06,,2013-02-11 01:52:00,
2013-02-10 20:01:00,27.0,27.0,-100.00,NNW,330,22.0,26.0,98,0.01,,,0.07,,2013-02-11 02:01:00,
2013-02-10 20:11:00,27.0,27.0,-100.00,NNW,330,24.0,29.0,98,0.01,,,0.07,,2013-02-11 02:11:00,
2013-02-10 20:21:00,27.0,27.0,-100.00,NNW,330,24.0,29.0,98,0.02,,,0.07,,2013-02-11 02:21:00,
2013-02-10 20:31:00,27.0,27.0,-100.00,NNW,330,24.0,29.0,98,0.02,,,0.07,,2013-02-11 02:31:00,
2013-02-10 21:21:00,26.0,25.0,-100.00,NNW,330,27.0,32.0,98,0.01,,,0.09,,2013-02-11 03:21:00,
2013-02-10 21:31:00,26.0,25.0,-100.00,NNW,330,25.0,34.0,98,0.01,,,0.09,,2013-02-11 03:31:00,
2013-02-10 21:42:00,26.0,25.0,-100.00,NNW,330,27.0,32.0,98,0.02,,,0.09,,2013-02-11 03:42:00,
2013-02-10 21:52:00,26.0,25.0,-100.00,NNW,330,27.0,32.0,98,0.01,,,0.09,,2013-02-11 03:52:00,
2013-02-10 22:01:00,25.0,25.0,-100.00,NW,325,27.0,34.0,98,0.01,,,0.09,,2013-02-11 04:01:00,
2013-02-10 22:11:00,25.0,25.0,-100.00,NW,325,28.0,32.0,98,0.01,,,0.10,,2013-02-11 04:11:00,
2013-02-10 22:42:00,25.0,23.0,-100.00,NW,325,27.0,32.0,97,0.01,,,0.10,,2013-02-11 04:42:00,
2013-02-10 22:51:00,24.0,23.0,-100.00,NW,320,29.0,34.0,97,0.01,,,0.10,,2013-02-11 04:51:00,
2013-02-10 23:01:00,24.0,23.0,-100.00,NW,320,27.0,35.0,97,0.01,,,0.11,,2013-02-11 05:01:00,
2013-02-10 23:11:00,24.0,23.0,-100.00,NW,325,30.0,36.0,97,0.01,,,0.11,,2013-02-11 05:11:00,
2013-02-10 23:22:00,24.0,23.0,-100.00,NW,320,30.0,35.0,96,0.01,,,0.11,,2013-02-11 05:22:00,
2013-02-10 23:31:00,23.0,23.0,-100.00,NW,320,27.0,37.0,96,0.01,,,0.11,,2013-02-11 05:31:00,
2013-02-10 23:42:00,23.0,23.0,-100.00,NW,320,31.0,35.0,96,0.01,,,0.11,,2013-02-11 05:42:00,
2013-02-10 23:52:00,23.0,21.0,-100.00,NW,320,32.0,35.0,96,0.01,,,0.11,,2013-02-11 05:52:00,